| time (UTC) | temp F | wind direction | speed knots | gust knots | rain 1hr in | rain 24hr in | rain mn in | humidity % | barometer mb |
| 20260506123412 | 43 | 229 | 1.7 | 7.0 | 0.04 | 0.17 | 0.11 | 83 | 1010.2 |
| 20260506121912 | 43 | 214 | 0.9 | 4.3 | 0.04 | 0.16 | 0.10 | 82 | 1010.3 |
| 20260506120412 | 43 | 212 | 0.9 | 1.7 | 0.05 | 0.15 | 0.09 | 84 | 1010.1 |
| 20260506114912 | 43 | 207 | 1.7 | 4.3 | 0.05 | 0.14 | 0.08 | 82 | 1010.1 |
| 20260506113412 | 43 | 238 | 0.9 | 6.1 | 0.04 | 0.13 | 0.07 | 81 | 1010.1 |
| 20260506111912 | 43 | 234 | 1.7 | 4.3 | 0.04 | 0.12 | 0.06 | 80 | 1010.3 |
| 20260506110412 | 43 | 258 | 0.9 | 1.7 | 0.04 | 0.10 | 0.04 | 80 | 1010.0 |
| 20260506104912 | 44 | 271 | 0.9 | 1.7 | 0.03 | 0.09 | 0.03 | 79 | 1009.9 |
| 20260506103412 | 44 | 253 | 0.9 | 4.3 | 0.03 | 0.09 | 0.03 | 77 | 1009.7 |
| 20260506101912 | 45 | 262 | 1.7 | 3.5 | 0.02 | 0.08 | 0.02 | 75 | 1009.3 |
| 20260506100412 | 46 | 243 | 2.6 | 6.1 | 0.00 | 0.06 | 0.00 | 74 | 1009.1 |
| 20260506094912 | 46 | 271 | 3.5 | 5.2 | 0.00 | 0.06 | 0.00 | 73 | 1009.1 |
| 20260506093412 | 47 | 261 | 0.9 | 3.5 | 0.00 | 0.06 | 0.00 | 81 | 1008.7 |
| 20260506091912 | 47 | 238 | 1.7 | 4.3 | 0.00 | 0.06 | 0.00 | 80 | 1008.6 |
| 20260506090412 | 47 | 250 | 1.7 | 5.2 | 0.00 | 0.06 | 0.00 | 80 | 1008.5 |
| 20260506084912 | 47 | 274 | 2.6 | 5.2 | 0.00 | 0.06 | 0.00 | 80 | 1008.8 |
| 20260506083412 | 48 | 236 | 1.7 | 6.1 | 0.00 | 0.06 | 0.00 | 79 | 1008.8 |
| 20260506081912 | 48 | 248 | 2.6 | 7.0 | 0.00 | 0.06 | 0.00 | 79 | 1008.8 |
| 20260506080412 | 48 | 250 | 2.6 | 6.1 | 0.00 | 0.06 | 0.00 | 78 | 1008.4 |
| 20260506073413 | 49 | 238 | 3.5 | 7.8 | 0.00 | 0.06 | 0.00 | 77 | 1008.2 |
| 20260506071912 | 49 | 251 | 2.6 | 7.0 | 0.00 | 0.06 | 0.00 | 76 | 1008.2 |
| 20260506070413 | 49 | 243 | 2.6 | 7.0 | 0.00 | 0.06 | 0.00 | 74 | 1008.0 |
| 20260506061913 | 50 | 238 | 2.6 | 6.1 | 0.00 | 0.06 | 0.00 | 73 | 1007.5 |
| 20260506060413 | 50 | 233 | 2.6 | 6.1 | 0.00 | 0.06 | 0.00 | 72 | 1007.4 |
| 20260506050413 | 50 | 273 | 1.7 | 4.3 | 0.00 | 0.06 | 0.00 | 72 | 1006.8 |
| 20260506044913 | 51 | 240 | 2.6 | 5.2 | 0.00 | 0.06 | 0.00 | 70 | 1006.8 |
| 20260506043413 | 51 | 259 | 2.6 | 6.1 | 0.00 | 0.06 | 0.00 | 68 | 1006.7 |
| 20260506041913 | 51 | 238 | 3.5 | 6.1 | 0.00 | 0.06 | 0.00 | 68 | 1006.5 |
| 20260506040413 | 51 | 255 | 3.5 | 8.7 | 0.00 | 0.06 | 0.06 | 68 | 1006.1 |
| 20260506034913 | 52 | 252 | 3.5 | 6.1 | 0.00 | 0.06 | 0.06 | 69 | 1006.0 |
| 20260506033413 | 52 | 281 | 5.2 | 8.7 | 0.00 | 0.06 | 0.06 | 69 | 1005.9 |
| 20260506031913 | 53 | 250 | 4.3 | 7.8 | 0.00 | 0.06 | 0.06 | 68 | 1005.5 |
| 20260506030413 | 53 | 259 | 6.1 | 12.2 | 0.00 | 0.06 | 0.06 | 68 | 1005.6 |
| 20260506024913 | 53 | 278 | 5.2 | 10.4 | 0.00 | 0.06 | 0.06 | 68 | 1005.2 |
| 20260506023413 | 54 | 285 | 5.2 | 10.4 | 0.00 | 0.06 | 0.06 | 68 | 1004.9 |
| 20260506021913 | 55 | 252 | 5.2 | 12.2 | 0.00 | 0.06 | 0.06 | 67 | 1004.8 |
| 20260506020413 | 55 | 275 | 4.3 | 9.6 | 0.00 | 0.06 | 0.06 | 69 | 1004.6 |
| 20260506014913 | 55 | 260 | 2.6 | 7.0 | 0.00 | 0.06 | 0.06 | 69 | 1004.4 |
| 20260506013413 | 55 | 203 | 4.3 | 8.7 | 0.00 | 0.06 | 0.06 | 67 | 1004.3 |
| 20260506011913 | 56 | 276 | 2.6 | 10.4 | 0.00 | 0.06 | 0.06 | 67 | 1003.9 |
| 20260506010413 | 57 | 264 | 2.6 | 5.2 | 0.00 | 0.06 | 0.06 | 63 | 1003.5 |
| 20260506004913 | 58 | 220 | 2.6 | 5.2 | 0.00 | 0.06 | 0.06 | 62 | 1002.9 |
| 20260506003413 | 58 | 226 | 4.3 | 7.0 | 0.00 | 0.06 | 0.06 | 62 | 1003.0 |
| 20260506001913 | 59 | 296 | 5.2 | 12.2 | 0.00 | 0.06 | 0.06 | 61 | 1003.0 |
| 20260506000413 | 59 | 274 | 5.2 | 10.4 | 0.00 | 0.06 | 0.06 | 64 | 1002.9 |
| 20260505234913 | 60 | 283 | 2.6 | 4.3 | 0.00 | 0.06 | 0.06 | 66 | 1002.4 |
| 20260505233413 | 60 | 274 | 2.6 | 5.2 | 0.00 | 0.06 | 0.06 | 64 | 1002.1 |
| 20260505231913 | 60 | 285 | 2.6 | 6.1 | 0.00 | 0.06 | 0.06 | 63 | 1001.7 |
| 20260505230413 | 61 | 285 | 3.5 | 6.1 | 0.00 | 0.06 | 0.06 | 63 | 1001.6 |
| 20260505224913 | 61 | 282 | 5.2 | 13.0 | 0.00 | 0.06 | 0.06 | 63 | 1001.7 |
| 20260505223413 | 61 | 269 | 5.2 | 10.4 | 0.00 | 0.06 | 0.06 | 65 | 1001.0 |
| 20260505221913 | 61 | 270 | 5.2 | 8.7 | 0.00 | 0.06 | 0.06 | 68 | 1000.8 |
| 20260505220413 | 61 | 251 | 1.7 | 8.7 | 0.00 | 0.06 | 0.06 | 70 | 1000.5 |
| 20260505214913 | 62 | 252 | 4.3 | 7.8 | 0.00 | 0.06 | 0.06 | 70 | 1000.3 |
| 20260505213413 | 61 | 277 | 4.3 | 7.8 | 0.00 | 0.06 | 0.06 | 71 | 1000.2 |
| 20260505211913 | 61 | 259 | 4.3 | 7.8 | 0.00 | 0.06 | 0.06 | 71 | 999.9 |
| 20260505210413 | 61 | 235 | 5.2 | 15.6 | 0.00 | 0.06 | 0.06 | 72 | 999.4 |
| 20260505204913 | 61 | 287 | 5.2 | 12.2 | 0.00 | 0.06 | 0.06 | 71 | 999.2 |
| 20260505203413 | 64 | 330 | 10.4 | 16.5 | 0.00 | 0.06 | 0.06 | 69 | 999.0 |
| 20260505201913 | 67 | 233 | 7.0 | 20.0 | 0.00 | 0.06 | 0.06 | 60 | 998.2 |
| 20260505200413 | 68 | 207 | 7.0 | 14.8 | 0.00 | 0.06 | 0.06 | 59 | 998.0 |
| 20260505194913 | 68 | 221 | 7.0 | 13.9 | 0.00 | 0.06 | 0.06 | 59 | 997.8 |
| 20260505193413 | 69 | 240 | 7.8 | 11.3 | 0.00 | 0.06 | 0.06 | 57 | 997.6 |
| 20260505191913 | 70 | 270 | 7.8 | 16.5 | 0.00 | 0.06 | 0.06 | 58 | 997.6 |
| 20260505190413 | 69 | 234 | 7.0 | 18.2 | 0.00 | 0.06 | 0.06 | 60 | 997.7 |
| 20260505184913 | 70 | 201 | 6.1 | 13.9 | 0.00 | 0.06 | 0.06 | 59 | 997.7 |
| 20260505183413 | 70 | 225 | 5.2 | 12.2 | 0.00 | 0.06 | 0.06 | 61 | 997.9 |
| 20260505181913 | 68 | 206 | 4.3 | 7.8 | 0.00 | 0.06 | 0.06 | 61 | 998.1 |
| 20260505180413 | 67 | 220 | 4.3 | 9.6 | 0.00 | 0.06 | 0.06 | 65 | 998.3 |
| 20260505174913 | 65 | 219 | 2.6 | 7.8 | 0.00 | 0.06 | 0.06 | 71 | 998.4 |
| 20260505173413 | 62 | 220 | 0.9 | 3.5 | 0.00 | 0.06 | 0.06 | 76 | 998.5 |
| 20260505171913 | 60 | 239 | 1.7 | 4.3 | 0.01 | 0.06 | 0.06 | 78 | 998.6 |
| 20260505170413 | 57 | 233 | 0.0 | 2.6 | 0.01 | 0.06 | 0.06 | 82 | 998.8 |
| 20260505164913 | 56 | 229 | 0.0 | 1.7 | 0.01 | 0.06 | 0.06 | 82 | 999.3 |
| 20260505163413 | 56 | 228 | 0.9 | 1.7 | 0.01 | 0.06 | 0.06 | 81 | 999.7 |
| 20260505161913 | 56 | 287 | 0.0 | 1.7 | 0.05 | 0.05 | 0.05 | 81 | 999.8 |
| 20260505160413 | 56 | 288 | 0.9 | 2.6 | 0.05 | 0.05 | 0.05 | 81 | 999.8 |
| 20260505151913 | 60 | 279 | 3.5 | 7.0 | 0.00 | 0.00 | 0.00 | 72 | 1000.6 |
| 20260505150413 | 62 | 248 | 3.5 | 7.8 | 0.00 | 0.00 | 0.00 | 69 | 1000.4 |
| 20260505140413 | 61 | 222 | 3.5 | 7.0 | 0.00 | 0.00 | 0.00 | 69 | 1000.3 |
| 20260505124913 | 53 | 1 | 0.0 | 0.0 | 0.00 | 0.07 | 0.00 | 74 | 1000.6 |